TimeCDT,TemperatureF,Dew PointF,Humidity,Sea Level PressureIn,VisibilityMPH,Wind Direction,Wind SpeedMPH,Gust SpeedMPH,PrecipitationIn,Events,Conditions,WindDirDegrees,DateUTC
12:15 AM,33.4,32.2,95,29.68,5.0,WNW,9.2,-,N/A,,Overcast,290,2013-10-21 05:15:00
12:35 AM,33.3,32.2,96,29.68,3.0,WNW,8.1,-,N/A,,Overcast,290,2013-10-21 05:35:00
12:55 AM,33.1,32.0,96,29.69,4.0,WNW,8.1,18.4,N/A,,Overcast,290,2013-10-21 05:55:00
1:15 AM,33.1,32.0,96,29.70,7.0,West,8.1,-,N/A,,Overcast,280,2013-10-21 06:15:00
1:35 AM,33.1,32.0,96,29.70,10.0,West,5.8,-,N/A,,Overcast,280,2013-10-21 06:35:00
1:55 AM,33.3,32.2,96,29.71,10.0,West,9.2,-,N/A,,Overcast,280,2013-10-21 06:55:00
2:15 AM,33.3,32.0,95,29.72,10.0,West,10.4,-,N/A,,Overcast,280,2013-10-21 07:15:00
2:35 AM,33.3,32.0,95,29.73,10.0,West,10.4,-,N/A,,Overcast,280,2013-10-21 07:35:00
2:55 AM,33.3,32.0,95,29.73,10.0,West,8.1,-,N/A,,Overcast,280,2013-10-21 07:55:00
3:15 AM,33.1,32.0,96,29.73,4.0,West,6.9,-,N/A,Rain,Rain,280,2013-10-21 08:15:00
3:35 AM,33.1,32.0,96,29.73,10.0,West,10.4,-,N/A,,Overcast,270,2013-10-21 08:35:00
3:55 AM,33.3,32.0,95,29.74,10.0,West,9.2,-,N/A,,Overcast,280,2013-10-21 08:55:00
4:15 AM,33.1,32.0,96,29.74,10.0,West,11.5,17.3,N/A,,Overcast,280,2013-10-21 09:15:00
4:35 AM,33.1,32.0,96,29.75,10.0,West,6.9,-,N/A,,Overcast,270,2013-10-21 09:35:00
4:55 AM,33.1,31.8,95,29.76,10.0,West,13.8,-,N/A,,Overcast,280,2013-10-21 09:55:00
5:15 AM,32.9,31.6,95,29.76,10.0,West,9.2,16.1,N/A,,Overcast,280,2013-10-21 10:15:00
5:35 AM,32.5,31.3,95,29.76,10.0,West,6.9,-,N/A,,Overcast,280,2013-10-21 10:35:00
5:55 AM,32.4,31.1,95,29.77,7.0,West,6.9,-,N/A,,Overcast,270,2013-10-21 10:55:00
6:15 AM,32.0,30.4,94,29.77,10.0,WNW,8.1,-,N/A,,Overcast,290,2013-10-21 11:15:00
6:35 AM,32.0,30.2,93,29.77,10.0,West,9.2,-,N/A,,Overcast,280,2013-10-21 11:35:00
6:55 AM,32.0,30.2,93,29.77,3.0,West,8.1,-,N/A,Snow,Light Snow,270,2013-10-21 11:55:00
7:15 AM,31.5,29.3,92,29.78,10.0,West,10.4,16.1,N/A,,Overcast,280,2013-10-21 12:15:00
7:35 AM,31.5,28.4,88,29.79,10.0,West,9.2,16.1,N/A,,Overcast,270,2013-10-21 12:35:00
7:55 AM,31.1,28.8,91,29.79,4.0,WNW,13.8,-,N/A,,Overcast,290,2013-10-21 12:55:00
8:15 AM,30.4,27.9,90,29.80,3.0,West,11.5,18.4,N/A,Snow,Light Snow,280,2013-10-21 13:15:00
8:35 AM,31.1,27.7,87,29.80,10.0,WNW,5.8,-,N/A,,Overcast,290,2013-10-21 13:35:00
8:55 AM,31.5,27.9,87,29.80,10.0,WNW,6.9,-,N/A,,Overcast,290,2013-10-21 13:55:00
9:15 AM,31.5,27.9,87,29.80,10.0,WNW,4.6,-,N/A,,Overcast,290,2013-10-21 14:15:00
9:35 AM,31.1,27.0,85,29.80,10.0,West,9.2,-,N/A,,Overcast,280,2013-10-21 14:35:00
9:55 AM,31.1,26.4,83,29.80,10.0,West,9.2,-,N/A,,Overcast,270,2013-10-21 14:55:00
10:15 AM,31.1,26.2,82,29.81,10.0,West,8.1,-,N/A,,Overcast,270,2013-10-21 15:15:00
10:35 AM,31.3,25.2,78,29.81,10.0,West,11.5,17.3,N/A,,Overcast,270,2013-10-21 15:35:00
10:55 AM,31.6,23.7,73,29.81,10.0,West,9.2,-,N/A,,Overcast,260,2013-10-21 15:55:00
11:15 AM,31.5,23.7,73,29.81,10.0,West,11.5,-,N/A,,Overcast,280,2013-10-21 16:15:00
11:35 AM,31.5,23.9,74,29.81,10.0,West,11.5,17.3,N/A,,Overcast,280,2013-10-21 16:35:00
11:55 AM,31.8,22.5,68,29.81,10.0,West,10.4,18.4,N/A,,Overcast,280,2013-10-21 16:55:00
12:15 PM,32.0,21.4,65,29.81,10.0,West,10.4,-,N/A,,Overcast,270,2013-10-21 17:15:00
12:35 PM,31.8,21.0,64,29.80,10.0,West,13.8,21.9,N/A,,Overcast,280,2013-10-21 17:35:00
12:55 PM,30.9,20.5,65,29.80,10.0,West,10.4,18.4,N/A,,Overcast,260,2013-10-21 17:55:00
1:15 PM,31.6,21.7,67,29.80,10.0,West,10.4,16.1,N/A,,Overcast,270,2013-10-21 18:15:00
1:35 PM,32.0,20.8,63,29.80,10.0,West,10.4,18.4,N/A,,Overcast,280,2013-10-21 18:35:00
1:55 PM,32.0,20.8,63,29.79,10.0,West,12.7,18.4,N/A,,Overcast,260,2013-10-21 18:55:00
2:15 PM,32.0,20.1,62,29.79,10.0,West,9.2,18.4,N/A,,Overcast,260,2013-10-21 19:15:00
2:35 PM,32.0,19.9,61,29.79,10.0,West,12.7,20.7,N/A,,Overcast,270,2013-10-21 19:35:00
2:55 PM,32.0,20.5,63,29.79,10.0,West,8.1,-,N/A,,Overcast,270,2013-10-21 19:55:00
3:15 PM,32.0,20.3,62,29.79,10.0,West,12.7,18.4,N/A,,Overcast,260,2013-10-21 20:15:00
3:35 PM,32.0,20.3,62,29.79,10.0,West,8.1,19.6,N/A,,Overcast,270,2013-10-21 20:35:00
3:55 PM,32.0,20.5,63,29.79,10.0,West,6.9,18.4,N/A,,Overcast,260,2013-10-21 20:55:00
4:15 PM,32.0,21.2,64,29.79,10.0,West,9.2,-,N/A,,Overcast,260,2013-10-21 21:15:00
4:35 PM,32.0,20.8,63,29.79,10.0,WSW,6.9,-,N/A,,Overcast,250,2013-10-21 21:35:00
4:55 PM,32.0,20.1,62,29.79,10.0,West,13.8,18.4,N/A,,Overcast,260,2013-10-21 21:55:00
5:15 PM,31.5,21.2,66,29.80,7.0,West,11.5,21.9,N/A,Snow,Light Snow,260,2013-10-21 22:15:00
5:35 PM,30.6,23.0,74,29.80,10.0,WSW,5.8,-,N/A,,Overcast,250,2013-10-21 22:35:00
5:55 PM,30.0,23.9,78,29.80,5.0,West,11.5,16.1,N/A,Snow,Light Snow,270,2013-10-21 22:55:00
6:15 PM,29.3,25.5,86,29.81,7.0,West,6.9,-,N/A,,Overcast,260,2013-10-21 23:15:00
6:35 PM,29.3,25.7,86,29.80,7.0,WSW,5.8,-,N/A,Snow,Light Snow,250,2013-10-21 23:35:00
6:55 PM,29.3,25.5,86,29.80,10.0,West,4.6,-,N/A,,Overcast,260,2013-10-21 23:55:00
7:15 PM,29.3,25.3,85,29.80,10.0,WSW,4.6,-,N/A,,Overcast,250,2013-10-22 00:15:00
7:35 PM,28.8,24.8,85,29.80,10.0,WSW,4.6,-,N/A,,Scattered Clouds,250,2013-10-22 00:35:00
7:55 PM,28.9,24.8,84,29.79,10.0,SW,4.6,-,N/A,,Scattered Clouds,230,2013-10-22 00:55:00
8:15 PM,29.7,24.1,80,29.79,10.0,West,5.8,-,N/A,,Overcast,260,2013-10-22 01:15:00
8:35 PM,30.4,23.5,76,29.78,10.0,WSW,10.4,16.1,N/A,,Overcast,250,2013-10-22 01:35:00
8:55 PM,30.4,23.7,76,29.78,10.0,WSW,5.8,-,N/A,,Overcast,250,2013-10-22 01:55:00
9:15 PM,30.9,23.9,75,29.78,10.0,WSW,8.1,-,N/A,,Overcast,250,2013-10-22 02:15:00
9:35 PM,31.1,24.3,76,29.77,10.0,West,6.9,-,N/A,,Overcast,260,2013-10-22 02:35:00
9:55 PM,31.5,24.8,76,29.77,10.0,West,10.4,17.3,N/A,,Overcast,260,2013-10-22 02:55:00
10:15 PM,32.0,25.2,76,29.77,10.0,West,12.7,20.7,N/A,,Overcast,260,2013-10-22 03:15:00
10:35 PM,32.0,25.7,78,29.77,10.0,West,13.8,20.7,N/A,,Overcast,260,2013-10-22 03:35:00
10:55 PM,32.0,26.4,80,29.77,10.0,West,11.5,20.7,N/A,,Overcast,270,2013-10-22 03:55:00
11:15 PM,32.0,26.6,80,29.78,10.0,West,13.8,17.3,N/A,,Overcast,280,2013-10-22 04:15:00
11:35 PM,32.0,26.6,80,29.77,10.0,West,11.5,17.3,N/A,,Overcast,270,2013-10-22 04:35:00
11:55 PM,32.0,26.8,81,29.77,10.0,West,11.5,19.6,N/A,,Overcast,270,2013-10-22 04:55:00